GEFSGL_500_meanwind_264.txt.gz
Wind_Speed
8 8 8 8 8 8 9 10 10 11 11 11 11 12 13 13 12 12 12 13 12 12 12 13 13 14 14 14 15 15 15 15 15 15 15 16 17 18 19 19 20 21 21
7 7 7 8 8 8 9 10 11 11 11 11 11 12 12 12 12 12 12 13 13 12 12 13 13 14 14 15 15 15 15 15 15 16 16 17 17 17 18 19 19 20 20
6 6 8 8 8 9 10 10 10 11 11 11 11 11 11 11 11 11 11 12 12 12 13 13 13 14 14 15 16 16 15 16 16 17 16 16 17 17 18 18 20 20 20
7 7 8 8 9 10 10 10 10 10 11 11 12 12 11 11 10 10 10 11 11 11 12 12 13 14 14 15 15 15 15 15 16 16 16 17 17 18 19 20 20 21 21
7 7 8 9 10 10 10 10 11 10 11 11 12 11 11 11 11 10 10 10 10 10 10 11 12 13 14 14 14 14 14 14 15 15 16 17 18 19 19 20 21 21 22
7 8 9 10 10 10 10 11 11 11 11 11 11 11 11 11 11 10 10 10 9 10 10 11 11 13 14 14 13 13 13 14 15 16 17 18 18 19 20 21 21 22 22
9 9 10 10 11 11 11 11 11 11 12 11 11 11 12 12 11 11 11 10 10 10 11 11 12 13 12 12 12 12 13 14 15 16 17 18 19 19 19 20 21 21 21
10 11 11 11 11 11 11 11 11 12 12 11 11 11 11 11 11 11 11 11 10 10 11 11 11 11 11 11 11 12 13 14 15 16 17 17 18 19 19 20 20 20 20
11 12 12 12 12 12 12 12 12 12 11 11 11 11 11 11 11 11 11 11 11 12 12 11 11 10 11 11 11 13 14 14 15 16 16 17 17 18 18 19 19 20 20
11 12 12 12 12 12 12 11 11 11 11 11 11 11 11 11 11 11 12 11 12 12 12 12 11 11 11 11 12 13 14 15 16 17 17 17 17 17 18 19 19 20 20
12 12 11 11 11 11 11 11 11 11 11 10 10 11 11 11 11 11 12 12 13 13 12 12 11 11 11 12 12 13 13 14 15 16 17 17 17 18 18 19 20 20 20
13 13 12 12 12 11 11 11 11 11 10 10 10 11 10 11 11 11 11 12 12 12 12 11 11 11 11 11 12 12 13 14 15 15 16 16 17 18 19 19 20 21 21
14 13 12 12 12 11 11 11 11 10 10 9 10 10 10 10 11 10 10 11 11 11 11 10 10 11 11 12 12 13 13 14 14 15 15 16 17 18 18 19 20 21 21
14 13 13 13 13 12 11 11 10 10 9 9 10 10 10 11 11 11 11 11 10 10 11 11 11 11 12 12 13 13 14 14 15 15 15 16 17 18 18 20 20 20 20
14 14 13 13 13 12 11 10 10 10 9 10 10 11 11 12 11 11 11 11 11 11 11 11 11 11 12 13 13 13 14 14 15 16 16 17 17 18 19 20 20 19 19
14 14 13 12 13 12 11 10 10 10 10 10 11 11 12 12 12 11 11 11 11 11 11 12 12 12 13 13 14 14 15 15 16 16 17 18 18 18 19 19 19 19 19
15 14 13 12 12 12 12 11 11 11 11 11 11 11 12 12 12 11 11 11 12 12 12 12 13 13 13 14 15 16 17 17 17 18 18 18 19 19 20 19 19 19 19
15 15 15 14 13 13 13 12 12 11 11 11 11 11 11 11 12 12 12 12 12 12 12 13 13 13 14 15 16 16 17 17 18 18 18 19 20 20 20 19 19 19 19
17 16 15 15 14 14 14 13 12 12 12 12 12 12 12 12 12 12 13 13 12 13 13 13 13 14 14 15 15 16 16 17 17 18 18 19 20 20 20 19 19 19 19
17 17 16 15 16 15 15 15 14 14 14 14 13 13 13 13 13 13 13 13 13 14 14 14 15 15 15 15 16 16 16 17 17 18 19 19 20 20 19 19 19 19 19
19 18 17 17 17 17 16 16 16 16 16 15 15 14 14 14 14 14 14 14 14 14 14 15 15 16 16 15 15 15 16 17 18 19 19 20 20 20 19 19 19 19 19
20 20 19 19 18 18 17 17 17 16 16 17 16 15 15 15 15 15 15 15 14 14 15 15 15 16 16 16 16 17 17 18 19 20 20 20 20 19 19 19 19 19 19
20 20 19 19 18 18 18 17 17 16 16 16 16 16 16 16 16 16 16 15 15 15 16 16 16 16 16 16 17 17 18 19 20 20 20 20 20 20 20 20 20 20 19
21 20 20 19 19 18 18 18 18 17 17 17 17 17 17 16 16 16 15 15 15 16 16 16 17 17 18 18 17 18 19 20 21 21 20 20 21 21 20 20 20 20 19
22 21 20 20 19 19 19 19 19 19 18 18 17 17 17 17 16 16 16 16 17 17 18 18 18 19 19 19 19 19 20 21 22 21 21 21 20 21 20 20 20 20 20
23 22 21 21 21 21 20 20 20 20 20 19 19 18 17 17 17 17 18 18 18 19 19 19 19 20 20 19 20 21 21 22 21 21 21 20 20 21 20 20 20 20 20

GEFSGL_500_meanwind_270.txt.gz
Wind_Speed
8 9 9 10 10 11 11 11 11 11 11 11 11 12 13 13 12 12 13 12 12 12 12 12 11 12 13 13 14 15 15 15 15 15 15 16 17 17 18 18 18 19 19
9 9 9 9 10 10 10 11 11 11 11 12 12 13 14 14 13 13 13 12 13 12 12 12 12 12 13 14 14 15 15 15 15 15 16 16 16 16 17 18 18 19 20
8 8 9 10 10 10 10 11 11 11 12 12 13 13 13 13 13 13 12 12 12 12 11 12 12 12 12 13 14 15 15 15 15 16 16 16 15 15 16 18 19 20 21
8 8 9 9 9 10 10 11 11 11 12 12 13 13 12 12 12 12 11 11 11 11 11 11 12 12 12 13 14 14 14 15 15 15 15 15 16 16 17 18 19 20 21
10 10 10 10 10 10 11 11 12 12 12 12 12 12 13 13 13 12 11 10 11 11 11 12 12 12 12 13 13 13 14 14 14 14 15 16 16 17 18 18 19 19 20
10 10 10 10 10 10 11 11 11 11 11 12 12 12 12 13 12 11 11 10 11 11 11 12 12 12 13 13 13 13 14 14 14 14 15 16 17 17 17 18 18 19 19
10 10 10 10 10 11 11 11 11 11 11 10 11 11 12 12 12 12 12 11 11 12 12 12 12 13 12 12 12 13 14 14 14 15 15 16 17 18 18 18 18 18 19
11 11 11 11 11 11 10 10 10 10 9 9 9 10 11 11 12 12 11 12 12 12 13 13 13 13 13 13 13 14 14 14 14 15 16 17 17 18 18 18 19 19 20
11 11 11 11 12 12 11 11 11 10 9 9 9 10 11 11 11 11 11 11 12 12 12 12 12 12 13 13 14 14 14 15 15 15 17 17 18 18 18 19 19 20 20
12 12 11 11 12 11 11 11 11 10 10 10 10 11 11 12 11 11 11 11 10 11 11 12 12 12 12 13 13 14 14 14 15 16 17 17 17 17 18 19 20 20 20
13 13 13 12 12 12 11 11 11 11 11 11 11 11 12 11 11 11 11 11 11 11 12 12 12 12 12 12 13 13 14 14 15 15 16 16 17 17 17 18 19 19 20
13 14 13 13 13 12 12 12 11 11 11 11 11 12 11 11 11 11 12 12 13 13 13 13 13 13 13 13 13 14 14 14 14 14 15 15 17 18 18 19 19 20 21
14 14 14 14 14 13 12 12 12 12 12 12 11 11 12 12 11 12 12 13 14 14 14 14 14 14 14 14 14 14 15 15 14 14 15 16 17 18 18 19 19 20 20
15 15 15 14 14 14 14 13 13 12 11 11 10 11 11 11 12 12 13 13 14 14 14 14 15 15 15 14 15 15 15 15 15 15 16 17 18 18 18 19 19 20 20
16 16 15 15 14 14 13 13 13 12 12 11 11 11 11 12 12 13 13 14 14 14 15 15 15 15 15 15 15 15 15 15 15 15 16 17 18 18 19 20 20 20 20
17 16 16 15 15 14 14 14 13 13 13 12 12 12 12 12 13 14 14 15 15 14 15 15 15 15 16 16 15 15 15 15 15 16 17 18 18 18 19 20 20 21 21
18 17 17 16 15 15 15 15 15 14 14 14 13 13 13 13 14 14 15 14 14 15 15 15 15 15 16 16 15 15 15 15 16 16 17 18 19 19 19 20 21 21 21
19 18 18 17 17 16 16 15 15 15 15 14 14 15 15 15 15 15 15 15 14 14 14 14 15 15 15 16 16 16 17 17 17 17 18 19 20 20 20 21 21 21 21
20 20 20 19 18 17 16 16 15 15 15 15 15 15 15 16 16 16 16 16 15 15 14 15 15 16 16 17 17 17 17 17 17 18 19 20 20 21 21 22 22 22 22
20 20 20 19 18 18 18 17 17 17 16 16 16 16 16 16 16 16 16 16 15 15 16 16 16 17 17 17 17 16 16 17 18 19 19 20 20 21 22 23 23 23 23
21 20 19 19 18 18 19 18 18 18 18 17 16 16 16 16 16 16 15 15 16 16 16 16 17 17 17 16 16 16 17 17 18 19 19 20 21 21 22 23 23 22 22
22 22 21 20 19 19 19 19 19 18 17 17 17 17 17 17 17 16 16 16 16 17 17 18 18 17 17 17 17 17 18 18 18 19 20 21 22 22 22 22 22 21 21
22 22 21 20 20 20 20 19 18 18 18 18 18 18 18 18 17 17 17 17 17 18 18 18 17 17 16 17 18 18 19 19 20 20 21 22 22 23 22 22 21 21 21
22 22 21 21 20 20 20 20 20 20 19 19 19 19 19 19 19 18 18 18 18 19 19 19 18 18 18 18 19 20 20 20 20 21 22 22 23 23 23 23 23 23 22
23 23 23 22 22 21 21 22 22 21 21 21 20 20 20 20 20 20 20 20 20 20 20 19 19 19 19 19 20 20 21 21 21 22 23 24 24 25 25 25 24 24 23
24 23 23 23 23 22 22 21 22 23 23 23 22 22 21 21 21 21 21 21 21 21 21 20 21 21 21 22 22 22 22 22 22 23 24 25 25 26 26 26 25 25 24

GEFSGL_500_meanwind_276.txt.gz
Wind_Speed
11 11 11 12 12 12 12 12 12 13 13 12 12 12 12 12 12 12 12 13 13 12 12 13 13 14 14 14 14 15 15 15 15 15 15 15 16 16 17 17 17 18 18
11 12 12 12 12 12 12 12 11 11 12 12 13 12 13 13 12 12 12 12 12 12 12 13 13 14 14 14 14 14 14 14 14 15 15 16 16 16 16 16 16 16 17
11 12 12 11 11 12 12 12 11 11 12 12 13 13 13 13 12 12 12 11 12 12 12 13 13 14 14 14 14 13 13 14 15 15 15 16 16 17 17 17 17 17 18
12 12 11 12 12 13 12 11 12 12 12 12 13 13 12 12 12 12 12 12 12 12 12 13 13 13 14 14 13 13 13 14 15 15 16 16 16 16 16 17 18 18 18
11 11 11 12 12 12 11 11 11 11 11 12 12 12 12 12 12 11 12 12 13 13 12 13 13 13 14 13 12 13 13 14 15 16 16 16 16 16 17 17 17 18 19
11 11 11 11 11 12 11 11 11 11 11 11 11 11 12 12 12 12 12 13 14 13 13 13 13 13 12 13 13 14 14 15 15 15 16 16 16 16 16 16 17 17 18
11 11 11 11 11 11 11 11 11 11 11 11 11 11 11 11 12 12 13 13 13 14 13 13 12 12 13 13 13 13 14 14 15 15 15 15 15 16 16 16 17 17 18
12 11 12 11 11 11 11 12 12 12 12 11 11 11 11 12 12 13 13 13 13 13 12 12 13 13 14 14 14 14 14 14 15 15 14 15 15 16 16 17 17 18 18
12 12 12 12 12 12 12 11 11 11 11 11 12 12 12 12 12 12 13 12 12 11 12 12 13 13 14 14 14 14 14 15 14 14 14 15 15 16 16 16 17 18 17
13 13 13 13 12 12 12 12 12 12 12 12 12 13 12 12 13 13 12 11 11 11 11 12 12 12 13 14 14 14 14 14 14 14 14 14 15 16 16 16 17 18 18
15 14 14 13 13 13 13 13 13 13 13 13 13 12 13 13 13 13 12 12 11 11 12 12 12 12 12 13 14 14 14 14 14 14 14 15 16 16 16 17 18 18 19
15 15 15 14 14 14 13 13 13 13 14 14 13 13 13 13 13 13 12 12 12 12 12 12 13 13 13 14 14 14 14 14 14 14 14 15 16 16 17 17 18 19 19
16 16 15 15 15 15 14 14 14 14 15 14 14 14 14 14 13 13 13 12 12 12 12 12 13 14 15 15 15 15 14 14 14 14 15 16 16 17 17 18 19 19 18
18 17 16 16 16 16 15 15 15 15 15 15 14 14 14 14 14 13 13 13 13 13 13 13 14 14 14 15 15 15 14 14 15 15 16 16 17 17 18 18 18 19 19
19 19 19 18 17 16 16 16 16 16 16 16 15 15 15 14 14 13 13 13 14 14 14 15 15 15 15 15 16 15 14 15 15 16 17 17 17 17 17 18 19 20 20
20 20 19 19 18 18 18 17 17 17 16 16 16 17 16 16 15 14 14 15 15 15 15 16 16 16 16 17 16 16 15 15 16 16 17 17 17 17 18 18 19 21 21
21 20 20 19 19 19 18 18 18 18 17 17 17 17 17 17 17 16 16 16 16 16 16 16 16 17 17 17 17 16 16 16 15 16 16 16 16 18 19 19 20 20 21
22 21 21 21 20 20 20 19 18 18 18 19 18 18 18 18 18 18 18 18 18 17 17 17 16 16 16 17 17 16 16 16 16 17 17 17 17 18 19 19 20 20 20
22 22 22 22 22 22 21 20 20 19 19 19 19 19 19 19 19 19 19 19 18 17 17 16 16 17 17 17 17 17 16 16 16 17 17 17 17 18 19 19 20 20 20
24 24 23 23 22 22 21 21 21 20 20 20 19 19 18 18 18 18 18 18 17 17 17 17 17 17 17 17 17 16 16 16 16 16 17 17 18 18 19 19 20 20 21
24 23 23 22 22 21 21 21 21 21 20 20 19 19 18 19 19 18 18 18 19 18 18 18 18 17 17 16 16 16 16 16 16 16 16 16 17 17 18 19 20 21 22
24 24 23 22 22 22 21 21 21 21 21 21 20 20 20 20 20 19 19 19 19 19 19 19 18 17 16 17 16 16 16 16 16 16 16 17 17 18 18 19 20 21 22
25 25 24 23 23 22 22 22 22 22 22 21 22 22 22 22 21 21 21 21 20 20 20 20 19 18 18 17 17 16 16 16 17 17 18 18 18 18 19 20 20 21 22
24 24 24 24 24 24 24 24 24 23 23 23 23 23 23 22 22 22 22 22 21 21 21 21 20 19 18 18 18 18 18 19 19 19 19 19 19 20 20 21 22 23 24
23 23 23 24 24 25 25 25 25 25 25 24 24 24 24 23 23 23 23 22 22 22 21 20 20 19 19 19 19 19 20 20 20 21 21 21 21 22 22 23 23 23 24
23 23 24 24 25 25 26 26 26 26 26 26 25 25 25 25 25 24 24 23 23 22 21 21 20 20 20 20 20 20 21 21 21 21 21 21 22 23 23 24 24 24 25

GEFSGL_500_meanwind_282.txt.gz
Wind_Speed
13 12 12 13 13 14 14 14 14 13 14 14 14 14 14 14 14 13 13 13 13 13 14 14 14 15 16 16 16 16 15 15 15 15 14 15 15 15 15 16 16 16 16
13 13 13 13 13 13 13 13 13 13 13 13 13 13 13 13 13 13 13 14 14 14 14 14 15 15 15 16 16 16 15 15 16 15 15 15 15 15 16 16 16 16 16
13 13 13 14 13 13 13 14 13 14 13 13 13 13 13 13 13 14 14 14 14 14 14 15 15 15 15 16 16 16 16 16 16 15 14 15 15 15 16 16 16 17 16
15 15 14 14 14 14 14 14 13 14 13 13 12 13 14 14 13 13 14 13 13 13 14 14 15 15 15 16 16 16 16 16 15 15 14 14 14 15 15 16 16 16 17
15 16 15 15 14 14 14 14 14 13 13 13 12 13 14 14 13 14 13 13 13 13 14 14 14 14 14 15 16 16 15 15 14 14 14 14 15 15 15 16 16 17 17
15 15 15 15 14 14 14 14 13 13 14 14 13 13 14 14 14 14 14 14 14 14 14 15 14 14 14 15 15 14 13 13 13 13 14 14 15 15 15 15 16 17 17
15 14 15 14 14 14 14 14 14 14 14 13 13 13 13 14 13 13 13 13 14 14 14 14 15 15 15 15 14 13 13 12 13 14 14 15 15 15 16 16 16 16 16
15 15 15 14 14 15 14 13 14 14 13 13 14 14 14 13 13 13 13 13 13 14 14 14 15 15 15 14 14 14 14 14 14 15 15 15 16 16 16 16 16 16 16
16 16 15 16 16 16 14 13 13 14 14 14 14 14 13 13 13 13 12 13 14 14 15 15 15 15 15 15 15 14 14 15 15 15 15 16 16 16 17 16 16 16 17
17 17 17 17 16 15 14 14 15 15 14 14 13 13 13 13 13 13 13 13 14 15 15 15 15 15 15 15 15 15 15 16 15 15 15 16 16 16 16 16 16 17 17
17 16 17 17 17 16 15 15 15 15 14 14 14 14 14 14 14 13 14 14 14 15 15 15 15 15 15 16 16 16 16 15 15 15 16 16 16 17 16 16 16 18 18
18 18 17 17 17 16 16 16 16 16 16 15 15 15 15 15 14 14 14 15 15 16 16 15 15 15 15 15 15 15 16 16 16 16 16 16 17 17 17 17 17 19 19
18 18 17 17 17 17 17 17 17 17 17 17 16 16 15 15 15 15 16 16 16 16 16 16 15 15 15 15 15 16 16 16 16 16 17 17 17 17 17 18 18 19 19
18 18 18 18 18 18 18 18 19 19 18 18 17 16 16 16 16 16 17 17 17 17 17 16 16 16 16 16 16 17 17 17 17 17 18 18 18 18 18 18 18 18 19
20 20 19 19 19 19 19 18 18 18 18 17 17 17 16 16 17 18 18 18 18 18 18 18 18 18 18 17 17 17 17 18 18 18 18 18 18 18 19 19 19 19 20
21 21 21 21 21 20 20 19 19 19 18 17 17 17 17 17 17 18 18 19 19 19 19 19 19 19 19 19 18 18 18 18 18 18 19 19 18 19 19 18 19 19 20
21 21 21 22 22 21 20 20 20 21 20 19 19 19 19 20 20 20 20 20 21 20 20 20 19 20 19 19 19 18 18 18 18 18 18 18 18 19 19 19 19 19 20
22 22 22 22 22 22 21 21 21 21 21 21 21 21 22 21 21 21 22 22 22 21 20 20 19 19 19 19 19 18 18 18 18 18 18 19 19 19 19 19 19 19 20
22 22 22 23 23 22 22 22 21 21 21 21 21 22 22 22 22 22 22 22 22 22 21 20 19 19 19 19 18 18 19 19 19 19 20 20 20 20 20 19 19 20 21
24 24 23 23 23 22 22 22 22 22 22 23 23 23 23 22 22 22 22 22 22 22 21 21 20 20 20 20 20 20 20 20 20 21 21 21 20 20 20 19 19 20 21
24 24 24 23 23 23 23 22 22 22 23 23 22 22 23 22 22 22 21 21 22 22 23 22 23 22 22 21 21 21 21 21 21 21 22 22 21 20 19 19 19 20 21
25 24 24 24 24 24 24 24 24 24 23 23 23 23 23 22 22 22 22 22 22 22 23 23 23 22 22 23 23 22 22 22 22 22 22 21 20 19 19 19 20 21 21
26 25 24 23 23 24 24 24 24 24 24 23 23 23 23 23 23 23 24 23 23 23 23 23 23 23 23 23 22 22 22 22 22 22 21 21 20 20 19 20 20 21 22
25 24 24 23 23 24 24 24 24 24 23 23 23 24 24 24 24 25 24 24 24 23 23 24 24 23 23 23 23 23 23 23 23 23 22 21 20 20 21 22 22 22 23
23 24 24 24 24 24 24 24 24 24 24 24 24 25 25 25 25 25 25 25 25 25 25 24 24 24 24 24 24 24 24 24 24 23 23 23 22 22 23 23 24 24 24
23 24 24 24 24 24 24 24 24 24 24 24 24 24 25 25 25 25 25 25 24 25 25 25 25 25 25 26 26 25 25 24 24 24 24 24 23 23 24 24 25 25 24